User: anonymous   Login
Location: PFO Observatory
(45.2937°N, 66.0991°W)
Time: 12:35:50
(UTC-04:00)
Language:

Cosmos 1151 Rocket - Orbit

View from above orbital plane
View from above orbital plane
View from above satellite
View from above satellite

Ground track
Ground track

The orbit data is extracted from the following two-line orbital elements,

1 11672U 80005B   14352.17545507  .00000503  00000-0  52791-4 0  2077
2 11672 082.5151 219.9538 0018526 103.9534 022.5249 14.87390553887805
Epoch (UTC): 18 December 2014 04:12:39
Eccentricity: 0.0018526
inclination: 82.5151°
perigee height: 593 km
apogee height: 619 km
right ascension of ascending node: 219.9538°
argument of perigee: 103.9534°
revolutions per day: 14.87390553
mean anomaly at epoch: 22.5249°
orbit number at epoch: 88780

The dashed part of the orbit path shows where the satellite is in the earth's shadow,  

DLR